User: anonymous   Login
Location: Bonn
(50.7330°N, 7.1000°E)
Time: 00:10:57
(UTC+01:00)
Language:

Cosmos 1933 Rocket - Orbit

View from above orbital plane
View from above orbital plane
View from above satellite
View from above satellite

Ground track
Ground track

The orbit data is extracted from the following two-line orbital elements,

1 18959U 88020B   17324.52482037 +.00000094 +00000-0 +85496-5 0  9998
2 18959 082.5356 124.7387 0016456 346.8234 013.2549 14.83360506582675
Epoch (UTC): 20 November 2017 12:35:44
Eccentricity: 0.0016456
inclination: 82.5356°
perigee height: 607 km
apogee height: 630 km
right ascension of ascending node: 124.7387°
argument of perigee: 346.8234°
revolutions per day: 14.83360506
mean anomaly at epoch: 13.2549°
orbit number at epoch: 58267

The dashed part of the orbit path shows where the satellite is in the earth's shadow,  

DLR